Hourly Weather Asunción

Today, 6 August, Thursday

Time Temperature Precipitation Wind Pressure Humidity
00:00 +21°C° 0 mm 3 mps 757 mmHg 42%
01:00 +21°C° 0 mm 3 mps 757 mmHg 43%
02:00 +20°C° 0 mm 3 mps 757 mmHg 44%
03:00 +20°C° 0 mm 3 mps 757 mmHg 45%
04:00 +19°C° 0 mm 3 mps 757 mmHg 47%
05:00 +18°C° 0 mm 3 mps 757 mmHg 48%
06:00 +19°C° 0 mm 3 mps 758 mmHg 48%
07:00 +20°C° 0 mm 4 mps 759 mmHg 48%
08:00 +21°C° 0 mm 4 mps 759 mmHg 47%
09:00 +23°C° 0 mm 4 mps 759 mmHg 43%
10:00 +27°C° 0 mm 4 mps 759 mmHg 38%
11:00 +29°C° 0 mm 4 mps 759 mmHg 34%
12:00 +30°C° 0 mm 4 mps 759 mmHg 32%
13:00 +33°C° 0 mm 4 mps 758 mmHg 29%
14:00 +34°C° 0 mm 3 mps 757 mmHg 27%
15:00 +31°C° 0 mm 3 mps 757 mmHg 32%
16:00 +30°C° 0 mm 2 mps 757 mmHg 36%
17:00 +28°C° 0 mm 1 mps 757 mmHg 41%
18:00 +27°C° 0 mm 2 mps 757 mmHg 43%
19:00 +25°C° 0 mm 2 mps 757 mmHg 45%
20:00 +23°C° 0 mm 2 mps 758 mmHg 47%
21:00 +23°C° 0 mm 2 mps 758 mmHg 48%
22:00 +21°C° 0 mm 2 mps 758 mmHg 49%
23:00 +21°C° 0 mm 3 mps 758 mmHg 50%

Tomorrow, 7 August, Friday

Time Temperature Precipitation Wind Pressure Humidity
00:00 +20°C° 0 mm 3 mps 758 mmHg 51%
01:00 +20°C° 0 mm 3 mps 757 mmHg 53%
02:00 +19°C° 0 mm 3 mps 757 mmHg 54%
03:00 +19°C° 0 mm 3 mps 757 mmHg 55%
04:00 +19°C° 0 mm 3 mps 757 mmHg 55%
05:00 +19°C° 0 mm 3 mps 757 mmHg 56%
06:00 +20°C° 0 mm 3 mps 757 mmHg 54%
07:00 +20°C° 0 mm 4 mps 758 mmHg 52%
08:00 +21°C° 0 mm 4 mps 758 mmHg 50%
09:00 +25°C° 0 mm 4 mps 758 mmHg 45%
10:00 +27°C° 0 mm 4 mps 758 mmHg 40%
11:00 +30°C° 0 mm 4 mps 758 mmHg 35%
12:00 +32°C° 0 mm 4 mps 757 mmHg 33%
13:00 +33°C° 0 mm 3 mps 757 mmHg 30%
14:00 +34°C° 0 mm 3 mps 756 mmHg 28%
15:00 +32°C° 0 mm 2 mps 756 mmHg 32%
16:00 +30°C° 0 mm 2 mps 756 mmHg 36%
17:00 +29°C° 0 mm 2 mps 756 mmHg 40%
18:00 +27°C° 0 mm 2 mps 756 mmHg 42%
19:00 +26°C° 0 mm 2 mps 756 mmHg 45%
20:00 +24°C° 0 mm 2 mps 757 mmHg 47%
21:00 +23°C° 0 mm 2 mps 757 mmHg 48%
22:00 +23°C° 0 mm 2 mps 757 mmHg 48%
23:00 +21°C° 0 mm 2 mps 757 mmHg 49%

Day after tomorrow, 8 August, Saturday

Time Temperature Precipitation Wind Pressure Humidity
00:00 +21°C° 0 mm 2 mps 757 mmHg 49%
01:00 +21°C° 0 mm 3 mps 757 mmHg 50%
02:00 +20°C° 0 mm 3 mps 757 mmHg 51%
03:00 +20°C° 0 mm 3 mps 757 mmHg 52%
04:00 +19°C° 0 mm 3 mps 757 mmHg 53%
05:00 +19°C° 0 mm 3 mps 757 mmHg 54%
06:00 +20°C° 0 mm 3 mps 757 mmHg 52%
07:00 +21°C° 0 mm 3 mps 758 mmHg 51%
08:00 +21°C° 0 mm 3 mps 758 mmHg 49%
09:00 +25°C° 0 mm 3 mps 758 mmHg 44%
10:00 +27°C° 0 mm 3 mps 758 mmHg 39%
11:00 +30°C° 0 mm 3 mps 758 mmHg 34%
12:00 +31°C° 0 mm 3 mps 757 mmHg 31%
13:00 +33°C° 0 mm 3 mps 756 mmHg 29%
14:00 +35°C° 0 mm 2 mps 756 mmHg 26%
15:00 +32°C° 0 mm 2 mps 755 mmHg 31%
16:00 +30°C° 0 mm 1 mps 755 mmHg 35%
17:00 +29°C° 0 mm 1 mps 755 mmHg 39%
18:00 +27°C° 0 mm 1 mps 755 mmHg 41%
19:00 +26°C° 0 mm 2 mps 755 mmHg 43%
20:00 +24°C° 0 mm 2 mps 756 mmHg 45%
21:00 +24°C° 0 mm 2 mps 756 mmHg 46%
22:00 +22°C° 0 mm 3 mps 756 mmHg 47%
23:00 +22°C° 0 mm 3 mps 756 mmHg 48%

9 August, Sunday

Time Temperature Precipitation Wind Pressure Humidity
00:00 +21°C° 0 mm 3 mps 756 mmHg 49%
01:00 +21°C° 0 mm 3 mps 756 mmHg 50%
02:00 +20°C° 0 mm 3 mps 755 mmHg 51%
03:00 +20°C° 0 mm 3 mps 755 mmHg 51%
04:00 +20°C° 0 mm 3 mps 755 mmHg 52%
05:00 +19°C° 0 mm 3 mps 755 mmHg 52%
06:00 +20°C° 0 mm 3 mps 755 mmHg 50%
07:00 +21°C° 0 mm 4 mps 756 mmHg 48%
08:00 +22°C° 0 mm 4 mps 756 mmHg 46%
09:00 +25°C° 0 mm 4 mps 756 mmHg 41%
10:00 +28°C° 0 mm 4 mps 755 mmHg 37%
11:00 +32°C° 0 mm 4 mps 755 mmHg 32%
12:00 +33°C° 0 mm 4 mps 754 mmHg 29%
13:00 +34°C° 0 mm 4 mps 753 mmHg 27%
14:00 +36°C° 0 mm 3 mps 752 mmHg 25%
15:00 +34°C° 0 mm 3 mps 752 mmHg 29%
16:00 +32°C° 0 mm 2 mps 751 mmHg 33%
17:00 +30°C° 0 mm 1 mps 751 mmHg 37%
18:00 +29°C° 0 mm 2 mps 751 mmHg 38%
19:00 +27°C° 0 mm 2 mps 751 mmHg 39%
20:00 +26°C° 0 mm 2 mps 751 mmHg 40%
21:00 +25°C° 0 mm 3 mps 751 mmHg 42%
22:00 +24°C° 0 mm 3 mps 751 mmHg 44%
23:00 +24°C° 0 mm 3 mps 751 mmHg 46%

10 August, Monday

Time Temperature Precipitation Wind Pressure Humidity
00:00 +22°C° 0 mm 3 mps 751 mmHg 46%
01:00 +22°C° 0 mm 3 mps 751 mmHg 45%
02:00 +21°C° 0 mm 3 mps 751 mmHg 45%
03:00 +21°C° 0 mm 3 mps 751 mmHg 46%
04:00 +21°C° 0 mm 3 mps 751 mmHg 47%
05:00 +20°C° 0 mm 3 mps 751 mmHg 47%
06:00 +21°C° 0 mm 3 mps 752 mmHg 47%
07:00 +22°C° 0 mm 3 mps 752 mmHg 46%
08:00 +24°C° 0 mm 3 mps 753 mmHg 45%
09:00 +27°C° 0 mm 3 mps 753 mmHg 41%
10:00 +30°C° 0 mm 3 mps 753 mmHg 36%
11:00 +33°C° 0 mm 3 mps 753 mmHg 31%
12:00 +35°C° 0 mm 3 mps 752 mmHg 28%
13:00 +36°C° 0 mm 3 mps 752 mmHg 25%
14:00 +38°C° 0 mm 3 mps 751 mmHg 22%
15:00 +36°C° 0 mm 2 mps 751 mmHg 26%
16:00 +34°C° 0 mm 1 mps 751 mmHg 30%
17:00 +32°C° 0 mm 1 mps 750 mmHg 34%
18:00 +30°C° 0 mm 1 mps 751 mmHg 36%
19:00 +28°C° 0 mm 1 mps 751 mmHg 37%
20:00 +27°C° 0 mm 1 mps 752 mmHg 39%
21:00 +26°C° 0 mm 2 mps 752 mmHg 46%
22:00 +25°C° 0 mm 2 mps 752 mmHg 52%
23:00 +24°C° 0 mm 3 mps 753 mmHg 59%

11 August, Tuesday

Time Temperature Precipitation Wind Pressure Humidity
00:00 +22°C° 0 mm 3 mps 753 mmHg 63%
01:00 +22°C° 0 mm 3 mps 753 mmHg 68%
02:00 +21°C° 0 mm 4 mps 753 mmHg 72%
03:00 +21°C° 0 mm 4 mps 753 mmHg 76%
04:00 +20°C° 0 mm 4 mps 753 mmHg 79%
05:00 +19°C° 0 mm 4 mps 753 mmHg 83%
06:00 +19°C° 0 mm 4 mps 753 mmHg 81%
07:00 +20°C° 0 mm 3 mps 753 mmHg 79%
08:00 +20°C° 0 mm 3 mps 754 mmHg 77%
09:00 +21°C° 0 mm 3 mps 753 mmHg 71%
10:00 +24°C° 0 mm 3 mps 753 mmHg 65%
11:00 +25°C° 0 mm 2 mps 753 mmHg 60%
12:00 +26°C° 0 mm 2 mps 752 mmHg 56%
13:00 +27°C° 0 mm 2 mps 751 mmHg 53%
14:00 +28°C° 0 mm 1 mps 750 mmHg 50%
15:00 +27°C° 0 mm 1 mps 750 mmHg 54%
16:00 +26°C° 0 mm 1 mps 750 mmHg 58%
17:00 +26°C° 0 mm 2 mps 749 mmHg 61%
18:00 +24°C° 0 mm 2 mps 749 mmHg 68%
19:00 +23°C° 0 mm 2 mps 749 mmHg 75%
20:00 +20°C° 0 mm 2 mps 749 mmHg 82%
21:00 +20°C° 0 mm 2 mps 749 mmHg 85%
22:00 +19°C° 0 mm 2 mps 749 mmHg 88%
23:00 +19°C° 0 mm 1 mps 749 mmHg 91%
Show more